www.pogodaiklimat.ru

Погода и климат >> Архив погоды >> Норвегия >> Лекнес


ПОГОДА в Лекнесе

  • Прогноз погоды в Лекнесе
  • Монитор погоды в Лекнесе

АРХИВ ПОГОДЫ в Лекнесе

Время (UTC), дата Ветер
(напр.,м/с)
 
Видим.   Явления Облачность Т
(С)
Тd
(С)
f
(%)
Тe
(С)
Тes
(С)
Комфортность P
(гПа)
Po
(гПа)
Тmin
(С)
Tmax
(С)
R
(мм)
R24
(мм)
S
(см)
07 12.07 С 6
{8}
н/о н/о +10.9 +7.8 81 +8 +8 1013.7 1010.7
08 12.07
{9}
н/о н/о +11.6 +8.3 80 1013.6 1010.6
09 12.07 С 6
{9}
н/о н/о +11.9 +8.4 79 +9 +9 1013.7 1010.7
10 12.07 С 7
{10}
н/о н/о +12.6 +9.3 80 +10 +10 1013.7 1010.7
11 12.07 С 7
{9}
н/о н/о +12.5 +8.6 77 +10 +10 1013.9 1010.9
12 12.07 С 6
{10}
н/о н/о +12.3 +8.2 76 +10 +10 1013.8 1010.8
13 12.07 С 7
{10}
н/о н/о +13.0 +8.9 76 +10 +10 1013.7 1010.8
14 12.07 С 7
{10}
н/о н/о +12.7 +8.6 76 +10 +10 1013.8 1010.8
15 12.07 С 8
{11}
н/о н/о +12.1 +8.6 79 +9 +9 1013.7 1010.8
16 12.07 С 8
{11}
н/о н/о +11.2 +8.4 83 +8 +8 1013.8 1010.8
17 12.07 С 8
{12}
н/о н/о +10.4 +8.2 86 +6 +6 1013.8 1010.8
18 12.07 С 7
{12}
н/о н/о +10.0 +7.9 87 +6 +6 1013.8 1010.8 +10.0 +13.5
19 12.07 С 8
{12}
н/о н/о +9.7 +7.8 88 +5 +5 1014.1 1011.1
20 12.07 С 7
{11}
н/о н/о +9.5 +7.8 89 +5 +5 1014.2 1011.2
21 12.07 С 7
{10}
н/о н/о +9.3 +7.8 90 +5 +5 1014.2 1011.2
22 12.07 С 6
{9}
н/о н/о +9.1 +7.9 92 +5 +5 1014.3 1011.3
23 12.07
{8}
н/о н/о +8.8 +7.7 93 1014.4 1011.3
00 13.07
{12}
н/о н/о +8.9 +7.8 93 1014.5 1011.4
01 13.07 С 4
{7}
н/о н/о +9.1 +7.9 92 +6 +6 1014.6 1011.6
02 13.07 С 4
{7}
н/о н/о +9.4 +8.0 91 +6 +6 1014.9 1011.8
03 13.07 С 4
{6}
н/о н/о +10.0 +8.3 89 +7 +7 1014.8 1011.8
04 13.07
{6}
н/о н/о +10.2 +8.5 89 1015.0 1012.0
05 13.07 СВ 3
{4}
н/о н/о +10.2 +8.5 89 +8 +8 1014.9 1011.9
06 13.07 СВ 4
{7}
н/о н/о +10.3 +8.6 89 +8 +8 1015.1 1012.1 +8.7 +10.3
07 13.07 С 4
{5}
н/о н/о +10.4 +8.5 88 +8 +8 1015.3 1012.3
08 13.07 СВ 2
{5}
н/о н/о +10.7 +8.6 87 +9 +9 1015.6 1012.6
09 13.07 С 3
{4}
н/о н/о +10.9 +8.8 87 +9 +9 1015.7 1012.7
10 13.07 СВ 3
{5}
н/о н/о +11.1 +8.9 86 +9 +9 1015.9 1012.9
11 13.07 СВ 4
{5}
н/о н/о +11.0 +8.9 87 +9 +9 1015.9 1012.9
12 13.07 СВ 4
{6}
н/о н/о +11.4 +8.8 84 +9 +9 1015.9 1012.9
13 13.07 С 3
{5}
н/о н/о +11.5 +8.7 83 +10 +10 1016.0 1013.0
14 13.07 С 5
{7}
н/о н/о +11.0 +8.4 84 +8 +8 1016.3 1013.3
15 13.07 С 5
{8}
н/о н/о +10.9 +8.1 83 +8 +8 1016.4 1013.4
16 13.07 СВ 5
{8}
н/о н/о +10.9 +8.3 84 +8 +8 1016.4 1013.4
17 13.07 СВ 7
{8}
н/о н/о +10.4 +7.6 83 +7 +7 1016.4 1013.4
18 13.07 СВ 7
{10}
н/о н/о +10.1 +7.5 84 +6 +6 1016.5 1013.5 +10.1 +11.8
19 13.07 С 6
{10}
н/о н/о +9.9 +7.2 83 +6 +6 1016.6 1013.6
20 13.07 СВ 7
{9}
н/о н/о +9.8 +7.2 84 +6 +6 1016.6 1013.5
21 13.07 С 6
{9}
н/о н/о +9.7 +7.0 83 +6 +6 1016.7 1013.7
22 13.07 С 6
{9}
н/о н/о +9.5 +6.9 84 +6 +6 1016.5 1013.5
23 13.07 С 7
{10}
н/о н/о +9.3 +6.6 83 +5 +5 1016.5 1013.5
00 14.07 С 5
{10}
н/о н/о +9.4 +6.5 82 +6 +6 1016.5 1013.5
01 14.07 С 5
{8}
н/о н/о +8.9 +6.4 84 +5 +5 1016.5 1013.5
02 14.07 С 6
{9}
н/о н/о +9.1 +6.2 82 +5 +5 1016.5 1013.4
03 14.07 С 6
{9}
н/о н/о +9.1 +6.2 82 +5 +5 1016.3 1013.3
04 14.07 С 6
{9}
н/о н/о +9.4 +6.1 80 +6 +6 1016.3 1013.3
05 14.07 С 6
{9}
н/о н/о +9.7 +5.9 77 +6 +6 1016.3 1013.3
06 14.07 С 6
{9}
н/о н/о +10.0 +6.0 76 +7 +7 1016.2 1013.2 +8.9 +10.1
07 14.07 С 6
{9}
н/о н/о +10.2 +5.8 74 +7 +7 1016.4 1013.4
08 14.07 СВ 6
{9}
н/о н/о +10.2 +5.6 73 +7 +7 1016.4 1013.4
09 14.07 СВ 6
{9}
н/о н/о +10.4 +5.8 73 +7 +7 1016.5 1013.4
10 14.07 С 7
{9}
н/о н/о +10.8 +6.0 72 +7 +7 1016.2 1013.2
11 14.07 С 7
{10}
н/о н/о +10.9 +6.1 72 +8 +8 1016.1 1013.1
12 14.07 СВ 7
{10}
н/о н/о +10.8 +6.0 72 +7 +7 1016.1 1013.1
13 14.07 С 6
{9}
н/о н/о +10.6 +5.6 71 +8 +8 1016.0 1013.0
14 14.07 С 5
{8}
н/о н/о +10.5 +6.1 74 +8 +8 1016.0 1013.0
15 14.07 С 4
{7}
н/о н/о +10.6 +6.2 74 +8 +8 1015.8 1012.8
16 14.07 С 4
{6}
н/о н/о +10.4 +6.0 74 +8 +8 1015.8 1012.8
17 14.07 С 4
{5}
н/о н/о +10.4 +6.2 75 +8 +8 1015.5 1012.5
18 14.07 С 3
{9}
н/о н/о +10.4 +6.6 77 +8 +8 1015.3 1012.3 +9.9 +11.2
19 14.07 С 3
{5}
н/о н/о +9.8 +6.9 82 +8 +8 1015.1 1012.1
20 14.07
{5}
н/о н/о +9.7 +6.6 81 1014.9 1011.9
21 14.07 СВ 3
{5}
н/о н/о +9.4 +7.0 85 +7 +7 1014.7 1011.7
22 14.07 С 3
{5}
н/о н/о +9.3 +7.1 86 +7 +7 1014.6 1011.6
23 14.07 С 5
{7}
н/о н/о +9.2 +6.7 84 +6 +6 1014.3 1011.3
00 15.07 С 4
{7}
н/о н/о +9.2 +6.7 84 +6 +6 1014.2 1011.2
01 15.07 СВ 4
{6}
н/о н/о +9.3 +7.1 86 +6 +6 1014.2 1011.2
02 15.07 СВ 4
{7}
н/о н/о +9.4 +7.0 85 +7 +7 1014.1 1011.1
03 15.07 С 4
{6}
н/о н/о +9.7 +7.0 83 +7 +7 1014.2 1011.2
04 15.07 С 5
{7}
н/о н/о +9.7 +7.0 83 +6 +6 1014.2 1011.2
05 15.07 С 5
{7}
н/о н/о +10.2 +6.9 80 +7 +7 1014.2 1011.2
06 15.07 С 5
{7}
н/о н/о +10.5 +6.8 78 +8 +8 1014.1 1011.1 +9.1 +10.5
07 15.07 С 6
{8}
н/о н/о +10.8 +6.6 75 +8 +8 1014.1 1011.1
08 15.07 СВ 5
{9}
н/о н/о +11.4 +6.8 73 +9 +9 1014.2 1011.2
09 15.07 С 7
{9}
н/о н/о +12.1 +7.2 72 +9 +9 1014.3 1011.3
10 15.07 СВ 7
{9}
н/о н/о +13.1 +6.9 66 +11 +11 1014.2 1011.3
11 15.07 С 7
{10}
н/о н/о +13.1 +6.9 66 +11 +11 1014.3 1011.3
12 15.07 С 7
{10}
н/о н/о +12.2 +6.7 69 +9 +9 1014.6 1011.6
13 15.07 СВ 8
{10}
н/о н/о +12.4 +6.9 69 +9 +9 1014.8 1011.9
14 15.07 С 8
{11}
н/о н/о +12.6 +6.4 66 +10 +10 1014.9 1012.0
15 15.07 СВ 8
{12}
н/о н/о +11.6 +6.1 69 +8 +8 1014.9 1011.9
16 15.07 СВ 7
{11}
н/о н/о +11.4 +5.5 67 +8 +8 1015.0 1012.0
17 15.07 СВ 7
{10}
н/о н/о +10.7 +6.3 74 +7 +7 1015.3 1012.3
18 15.07 С 7
{12}
н/о н/о +10.6 +5.6 71 +7 +7 1015.3 1012.3 +10.4 +13.6
19 15.07 С 7
{11}
н/о н/о +9.9 +5.3 73 +6 +6 1015.5 1012.5
20 15.07 С 6
{10}
н/о н/о +9.4 +4.8 73 +6 +6 1015.8 1012.8
21 15.07 С 6
{9}
н/о н/о +8.9 +4.9 76 +5 +5 1016.0 1012.9
22 15.07 С 6
{10}
н/о н/о +8.6 +5.9 83 +5 +5 1016.1 1013.1
23 15.07 С 3
{8}
н/о н/о +8.1 +5.2 82 +5 +5 1016.2 1013.2
00 16.07 С 4
{11}
н/о н/о +7.9 +5.4 84 +5 +5 1016.4 1013.3
01 16.07 СВ 3
{5}
н/о н/о +6.9 +5.2 89 +4 +4 1016.6 1013.6
02 16.07 С 3
{5}
н/о н/о +7.1 +5.3 88 +4 +4 1016.7 1013.7
03 16.07 СЗ 3
{5}
н/о н/о +8.1 +6.1 87 +5 +5 1016.8 1013.7
04 16.07 С 5
{7}
н/о н/о +9.4 +6.8 84 +6 +6 1016.7 1013.7
05 16.07 С 5
{8}
н/о н/о +9.9 +6.3 78 +7 +7 1016.8 1013.8
06 16.07 СВ 5
{8}
н/о н/о +10.8 +6.0 72 +8 +8 1016.8 1013.8 +6.5 +11.0
07 16.07 СВ 6
{7}
н/о н/о +10.9 +5.5 69 +8 +8 1016.9 1013.9
08 16.07 С 5
{7}
н/о н/о +11.7 +5.4 65 +9 +9 1016.8 1013.8
09 16.07 СВ 5
{7}
н/о н/о +12.1 +5.5 64 +10 +10 1016.9 1013.9
10 16.07 С 5
{7}
н/о н/о +12.9 +6.3 64 +11 +11 1017.0 1014.0
11 16.07 С 5
{7}
н/о н/о +12.8 +5.7 62 +11 +11 1016.9 1013.9
12 16.07 СВ 6
{8}
н/о н/о +12.6 +6.0 64 +10 +10 1017.0 1014.0
13 16.07 С 6
{8}
н/о н/о +12.7 +6.8 67 +10 +10 1017.0 1014.0
14 16.07 С 7
{9}
н/о н/о +12.3 +6.6 68 +10 +10 1017.2 1014.2
15 16.07 СВ 7
{9}
н/о н/о +12.3 +6.4 67 +10 +10 1017.3 1014.3
16 16.07 СВ 6
{9}
н/о н/о +12.2 +5.8 65 +10 +10 1017.3 1014.3
17 16.07 СВ 7
{9}
н/о н/о +11.2 +6.8 74 +8 +8 1017.3 1014.3
18 16.07 СВ 6
{9}
н/о н/о +10.8 +6.6 75 +8 +8 1017.3 1014.3 +10.3 +13.3
19 16.07 СВ 5
{8}
н/о н/о +10.4 +6.0 74 +8 +8 1017.3 1014.2
20 16.07 СВ 4
{7}
н/о н/о +9.6 +6.2 79 +7 +7 1017.2 1014.2
21 16.07 СВ 5
{8}
н/о н/о +8.9 +6.2 83 +5 +5 1017.3 1014.3
22 16.07 СВ 4
{8}
н/о н/о +8.5 +5.6 82 +5 +5 1017.3 1014.3
23 16.07 СВ 4
{6}
н/о н/о +8.1 +5.9 86 +5 +5 1017.4 1014.3
00 17.07 СВ 4
{8}
н/о н/о +7.5 +5.8 89 +4 +4 1017.3 1014.3
01 17.07 С 3
{5}
н/о н/о +7.0 +5.8 92 +4 +4 1017.2 1014.1
02 17.07 С 3
{4}
н/о н/о +6.7 +5.7 93 +3 +3 1016.9 1013.9
03 17.07 С 4
{6}
н/о н/о +8.0 +6.5 90 +5 +5 1016.7 1013.7
04 17.07 С 2
{5}
н/о н/о +8.5 +6.6 88 +7 +7 1016.3 1013.3
05 17.07 СВ 4
{7}
н/о н/о +10.2 +6.7 79 +8 +8 1016.4 1013.3
06 17.07 С 5
{7}
н/о н/о +10.8 +6.4 74 +8 +8 1016.0 1013.0 +6.5 +10.9
07 17.07 С 5
{7}
н/о н/о +11.1 +5.9 70 +9 +9 1015.7 1012.7
08 17.07 С 6
{8}
н/о н/о +11.9 +5.8 66 +9 +9 1015.7 1012.7
09 17.07 СВ 5
{8}
н/о н/о +12.1 +5.7 65 +10 +10 1015.6 1012.6
10 17.07 СВ 5
{9}
н/о н/о +13.0 +5.9 62 +11 +11 1015.5 1012.5
11 17.07 СВ 5
{8}
н/о н/о +13.1 +5.5 60 +11 +11 1015.3 1012.3
12 17.07 СВ 5
{9}
н/о н/о +13.1 +5.8 61 +11 +11 1015.1 1012.1
13 17.07 СВ 7
{10}
н/о н/о +13.1 +6.5 64 +11 +11 1015.0 1012.0
14 17.07 СВ 8
{10}
н/о н/о +12.3 +4.5 59 +9 +9 1014.8 1011.8
15 17.07 СВ 7
{11}
н/о н/о +12.5 +5.4 62 +10 +10 1014.7 1011.7
16 17.07 С 7
{9}
н/о н/о +10.7 +4.8 67 +7 +7 1014.6 1011.6
17 17.07 С 7
{11}
н/о н/о +10.4 +5.0 69 +7 +7 1014.5 1011.5
18 17.07 С 7
{11}
н/о н/о +10.5 +6.1 74 +7 +7 1014.3 1011.3 +10.2 +13.9
19 17.07 С 7
{11}
н/о н/о +9.8 +6.2 78 +6 +6 1014.1 1011.1
20 17.07 С 5
{9}
н/о н/о +9.1 +5.7 79 +6 +6 1014.0 1011.0
21 17.07 С 5
{8}
н/о н/о +8.3 +5.9 85 +5 +5 1013.8 1010.8
22 17.07 С 5
{8}
н/о н/о +8.6 +5.9 83 +5 +5 1014.0 1011.0
23 17.07 С 5
{8}
н/о н/о +8.1 +5.6 84 +4 +4 1013.9 1010.9
00 18.07 С 4
{11}
н/о н/о +7.8 +5.8 87 +4 +4 1013.7 1010.7
01 18.07 С 3
{7}
н/о н/о +7.6 +5.8 88 +5 +5 1013.6 1010.5
02 18.07 С 3
{5}
н/о н/о +7.8 +5.8 87 +5 +5 1013.3 1010.3
03 18.07 СВ 5
{7}
н/о н/о +8.5 +6.0 84 +5 +5 1013.1 1010.1
04 18.07 С 5
{7}
н/о н/о +9.1 +6.2 82 +6 +6 1013.0 1010.0
05 18.07 СВ 6
{9}
н/о н/о +10.1 +6.6 79 +7 +7 1012.9 1009.9
06 18.07 С 6
{9}
н/о н/о +10.8 +6.6 75 +8 +8 1012.8 1009.8 +7.4 +10.9
07 18.07 С 6
{8}
н/о н/о +11.7 +6.8 72 +9 +9 1012.8 1009.8
08 18.07 С 6
{9}
н/о н/о +12.3 +6.6 68 +10 +10 1012.7 1009.7
09 18.07 С 6
{9}
н/о н/о +13.6 +7.6 67 +12 +12 1012.5 1009.5
10 18.07 С 5
{8}
н/о н/о +14.3 +7.6 64 +13 +13 1012.3 1009.4
11 18.07 С 5
{8}
н/о н/о +15.0 +8.0 63 +14 +14 1012.4 1009.4
12 18.07 С 6
{9}
н/о н/о +15.5 +8.5 63 +14 +14 1012.0 1009.1
13 18.07 С 6
{8}
н/о н/о +15.5 +8.3 62 +14 +14 1011.8 1008.9
14 18.07 С 6
{8}
н/о н/о +16.2 +8.9 62 +15 +15 1011.8 1008.9
15 18.07 С 6
{8}
н/о н/о +15.8 +9.3 65 +14 +14 1011.5 1008.6
16 18.07 С 6
{8}
н/о н/о +15.8 +9.3 65 +14 +14 1011.4 1008.5
17 18.07 С 6
{8}
н/о н/о +15.5 +9.2 66 +14 +14 1011.2 1008.3
18 18.07 С 6
{9}
н/о н/о +14.9 +9.5 70 +13 +13 1011.1 1008.1 +10.8 +16.5
19 18.07 С 6
{8}
н/о н/о +14.1 +9.5 74 +12 +12 1011.0 1008.0
20 18.07 С 5
{8}
н/о н/о +13.7 +9.2 74 +12 +12 1010.9 1007.9
21 18.07 С 5
{7}
н/о н/о +13.1 +9.4 78 +11 +11 1010.8 1007.9
22 18.07 С 3
{5}
н/о н/о +13.0 +9.3 78 +12 +12 1010.9 1007.9
23 18.07 СВ 1
{3}
н/о н/о +10.4 +8.7 89 +10 +10 1011.1 1008.1
00 19.07 Ю 1
{8}
н/о н/о +11.9 +8.0 77 +12 +12 1011.0 1008.0
01 19.07 ЮВ 3
{4}
н/о н/о +16.7 +7.6 55 +17 +17 1010.8 1007.9
02 19.07 ЮВ 2
{5}
н/о н/о +16.6 +7.5 55 +17 +17 1010.9 1008.0
03 19.07 В 2
{4}
н/о н/о +16.9 +8.3 57 +17 +17 1010.8 1007.9
04 19.07 В 3
{5}
н/о н/о +17.2 +8.4 56 +17 +17 1010.7 1007.8
05 19.07 В 5
{7}
н/о н/о +18.0 +8.6 54 +18 +18 1010.6 1007.6

 

Местоположение метеостанции Лекнес (Норвегия): широта 68.16 долгота 13.62 высота над уровнем моря 26 м.

В архиве по умолчанию представлена погода в Лекнесе за последнюю неделю. Архивные данные за месяц целиком и за предыдущие месяцы, начиная с января 2011 года, Вы можете получить, выбрав интересующий диапазон дат из раскрывающегося списка и нажав кнопку "Ввод!".


*Определитесь, кто Вы:
робот инопланетянин человек

Внимание! Время в таблицах - всемирное. Для получения местного времени необходимо прибавить поправку, которая равна 1 ч.

Смотрите также архив погоды в соседних городах и на ближайших метеорологических станциях:

Погода на Маяке Skrova (Норвегия) (43 км)
Погода в Сволваер аэропорту (Норвегия) (45 км)
Погода в Бё (Норвегия) (60 км)
Погода в Аэропорту Vaeroy Heliport (Норвегия) (68 км)
Погода в Стокмаркнес аэропорту (Норвегия) (74 км)
Погода в Хеллигвере (Норвегия) (85 км)
Погода в Сортланне (Норвегия) (95 км)
Погода в Рост аэропорту (Норвегия) (96 км)
Погода на Маяке Rotvaer (Норвегия) (98 км)
Погода в Драге (Норвегия) (103 км)

Пояснения к столбцам:

Ветер - указаны скорость ветра в м/с - средняя за 10 мин, порывы в срок и между сроками (в фигурных скобках) и направление, откуда дует ветер: С - северный, СВ - северо-восточный, В - восточный, ЮВ - юго-восточный, Ю - южный, ЮЗ - юго-западный, З - западный, СЗ - северо-западный.
Видимость - горизонтальная дальность видимости в метрах или километрах. При видимости от 1 до 10 км при отсутствии осадков обычно наблюдается дымка, при ухудшении видимости до 1 км и менее - туман. В сухую погоду видимость может ухудшаться дымом, пылью или мглою.
Явления - указаны атмосферные явления, наблюдавшиеся в срок или в последний час перед сроком; фигурными скобками обозначены явления, наблюдавшиеся между сроками (за 1-3 часа до срока); квадратными скобками обозначены град или гололедные отложения с указанием их диаметра в мм.
Облачность - указаны через наклонную черту общая и нижняя облачность в баллах и высота нижней границы облаков в метрах; квадратными скобками обозначены формы облаков: Ci - перистые, Cs - перисто-слоистые, Cc - перисто-кучевые, Ac - высококучевые, As - высокослоистые, Sc - слоисто-кучевые, Ns - слоисто-дождевые, Cu - кучевые, Cb - кучево-дождевые. Подробнее классификацию облаков см. в Атласе облаков (PDF).
T - Температура воздуха - температура, измеренная на высоте 2 м над землей.
Td - Температура точки росы - температура, при понижении до которой содержащийся в воздухе водяной пар достигнет насыщения.
f - Относительная влажность воздуха - влажноcть воздуха, измеренная на высоте 2 м над землей.
Te - Эффективная температура - температура, которую ощущает одетый по сезону человек в тени. Характеристика душности погоды. При расчете учитывается влияние влажности воздуха и скорости ветра на теплоощущения человека.
Tes - Эффективная температура на солнце - температура, которую ощущает человек, с поправкой на солнечный нагрев. Характеристика знойности погоды. Зависит от высоты солнца над горизонтом, облачности и скорости ветра. Ночью, в пасмурную погоду, а также при ветре 12 м/с и более поправка равна нулю.
P - Атмосферное давление - приведенное к уровню моря атмосферное давление.
Po - Атмосферное давление - измеренное на уровне метеостанции атмосферное давление.
Tmin - Минимальная температура - минимум температуры воздуха на высоте 2 м над землей.
Tmax - Максимальная температура - максимум температуры воздуха на высоте 2 м над землей.
R - Количество осадков - Количество выпавших осадков за период времени, мм. При наведении курсора мыши на число - период времени, за который выпало указанное количество осадков.
R24 - Количество осадков - Количество выпавших осадков за 24 часа, мм.
S - Снежный покров - Высота снежного покрова, см. При наведении курсора мыши на число - состояние снежного покрова и степень покрытия местности в баллах.